Location: Bieg
(49.3499°N, 10.3835°E)
Time: 22:39:09
(UTC+00:00)

BREEZE-M DEB (TANK) - Pass Details

Date: 23 May 2024
Orbit: 288 x 16910 km, 49.4° (Epoch: 24 June)

Event Time Altitude Azimuth Distance (km) Brightness Sun altitude
Exits shadow 00:03:13 45° 195° (SSW) 855 3.3 -19.2°
Drops below altitude 10° 00:10:16 10° 127° (SE) 3,879 6.9 -19.0°
Sets 00:16:35 0° 124° (ESE) 6,666 8.1 -18.7°
